TimeMDT,TemperatureF,Dew PointF,Humidity,Sea Level PressureIn,VisibilityMPH,Wind Direction,Wind SpeedMPH,Gust SpeedMPH,PrecipitationIn,Events,Conditions,WindDirDegrees,DateUTC
12:53 AM,18.0,6.1,60,30.35,10.0,SSW,6.9,-,N/A,,Clear,200,2013-03-25 06:53:00
1:53 AM,16.0,6.1,65,30.36,10.0,South,3.5,-,N/A,,Clear,180,2013-03-25 07:53:00
2:53 AM,16.0,6.1,65,30.36,10.0,South,4.6,-,N/A,,Clear,170,2013-03-25 08:53:00
3:53 AM,14.0,7.0,74,30.36,10.0,Calm,Calm,-,N/A,,Clear,0,2013-03-25 09:53:00
4:53 AM,16.0,8.1,71,30.36,10.0,Calm,Calm,-,N/A,,Clear,0,2013-03-25 10:53:00
5:53 AM,16.0,8.1,71,30.36,10.0,Calm,Calm,-,N/A,,Clear,0,2013-03-25 11:53:00
6:53 AM,12.9,7.0,77,30.38,10.0,South,4.6,-,N/A,,Clear,170,2013-03-25 12:53:00
7:53 AM,15.1,8.1,74,30.39,10.0,South,4.6,-,N/A,,Clear,190,2013-03-25 13:53:00
8:53 AM,21.0,9.0,60,30.37,10.0,SSW,3.5,-,N/A,,Clear,200,2013-03-25 14:53:00
9:53 AM,26.1,10.0,51,30.36,10.0,Calm,Calm,-,N/A,,Clear,0,2013-03-25 15:53:00
10:53 AM,30.9,8.1,38,30.33,10.0,WSW,3.5,-,N/A,,Clear,240,2013-03-25 16:53:00
11:53 AM,35.1,7.0,31,30.32,10.0,South,10.4,-,N/A,,Clear,180,2013-03-25 17:53:00
12:53 PM,36.0,3.9,26,30.29,10.0,SSE,10.4,-,N/A,,Clear,160,2013-03-25 18:53:00
1:53 PM,37.9,3.9,24,30.26,10.0,SE,9.2,16.1,N/A,,Clear,130,2013-03-25 19:53:00
2:53 PM,39.9,3.9,22,30.23,10.0,Variable,4.6,-,N/A,,Clear,0,2013-03-25 20:53:00
3:53 PM,41.0,1.9,20,30.21,10.0,SSE,8.1,-,N/A,,Clear,150,2013-03-25 21:53:00
4:53 PM,42.1,1.9,19,30.18,10.0,SE,9.2,-,N/A,,Clear,140,2013-03-25 22:53:00
5:53 PM,42.1,1.9,19,30.16,10.0,SE,8.1,-,N/A,,Clear,140,2013-03-25 23:53:00
6:53 PM,41.0,7.0,25,30.15,10.0,SE,8.1,-,N/A,,Clear,130,2013-03-26 00:53:00
7:53 PM,32.0,10.0,40,30.16,10.0,ESE,9.2,-,N/A,,Clear,110,2013-03-26 01:53:00
8:53 PM,30.9,12.0,46,30.14,10.0,ESE,10.4,-,N/A,,Clear,110,2013-03-26 02:53:00
9:53 PM,28.0,10.9,49,30.14,10.0,WNW,3.5,-,N/A,,Clear,300,2013-03-26 03:53:00
10:53 PM,28.9,12.9,51,30.12,10.0,Calm,Calm,-,N/A,,Clear,0,2013-03-26 04:53:00
11:53 PM,24.1,12.9,62,30.12,10.0,Calm,Calm,-,N/A,,Clear,0,2013-03-26 05:53:00